Simultaneous Nadir Overpasses (SNOs) Predictions

Prediction of SNOs between METOP-A and TERRA Satellite Orbit:

Table of predicted SNOs for the next 14.0 days since TLE Epoch: 9/4/2021
Index Date (METOP-A) Time (METOP-A) Lat,Lon (METOP-A) SZA (METOP-A ) Date (TERRA) Time (TERRA) Lat,Lon (TERRA) SZA (TERRA ) Distance(km) Time Diff (sec)
1 09/05/2021 12:59:55 -81.28,-150.11 102.73 09/05/2021 13:00:03 -81.26,-150.07 102.74 1.98 8
2 09/05/2021 13:50:35 81.27, 17.53 77.31 09/05/2021 13:49:29 81.27, 17.68 77.30 2.51 66
3 09/08/2021 07:43:38 81.33, 107.64 78.22 09/08/2021 07:44:51 81.22, 108.06 78.23 13.68 73
4 09/08/2021 08:34:15 -81.27, -83.58 101.65 09/08/2021 08:34:16 -81.26, -83.62 101.66 1.13 1
5 09/08/2021 09:24:55 81.26, 84.03 78.39 09/08/2021 09:23:42 81.27, 84.09 78.37 1.41 73
6 09/11/2021 03:17:54 81.28, 175.26 79.40 09/11/2021 03:19:01 81.26, 175.19 79.42 2.04 67
7 09/11/2021 04:08:34 -81.26, -17.07 100.56 09/11/2021 04:08:28 -81.26, -17.21 100.58 2.38 6
8 09/13/2021 22:52:14 81.27,-118.28 80.50 09/13/2021 22:53:13 81.28,-118.10 80.55 3.27 59
9 09/13/2021 23:42:55 -81.27, 49.04 99.49 09/13/2021 23:42:41 -81.26, 49.16 99.50 2.75 14
10 09/16/2021 18:26:34 81.27, -51.85 81.61 09/16/2021 18:27:26 81.27, -51.79 81.64 1.09 52



Historial Predications of SNOs between METOP-A and TERRA
